BREEZE-M DEB (TANK), 44627

Orbit data source: Space-Track

BREEZE-M DEB (TANK), 44627 is space debris in HEO originally from a launch on Wed, 09 Oct 2019 UTC launched from the Tyuratam Missile And Space Complex (TTMTR). Debris objects in space refer to the collection of defunct objects orbiting the Earth. Examples of debris include non-operational satellites, rocket bodies, and fragments generated from explosions, collisions, or faulty payload assembly.

Loading next visibility...
Identifier
44627, 2019-067D
Orbit
HEO
Country
Flag of CISCIS
Related business
Manufacturer
Khrunichev
Mission
Spacecraft
Bus & Motor
BRIZ TANK, Unknown motor
Mass
~1,000 kg wet, 1,000 kg dry
Launch date (UTC)
2019-10-09 (6 years ago)
Launch vehicle
Unknown
Launch site
Tyuratam Missile And Space Complex (TTMTR)
Object type
Payload
Rocket body
Debris
Shape & HBR
Torus, Unknown HBR
Radar Cross Section
8.218 m², Large (>1 m²)

Expand to show TLE details & history
Last TLE update: 3 days ago

TLE from 3 days ago
0 BREEZE-M DEB (TANK)
1 44627U 19067D   25259.03646628  .00001233  00000-0  72237-3 0  9997
2 44627  50.4317  21.9498 5766417  94.6226 329.6329  4.33021975 92002
Epoch: 2025-09-16T00:52Z
TLE epoch observation values (Epoch: 2025-09-16T00:52:30.686Z)
Latitude
-0.00007°
Longitude
13.57046°
Altitude
4,750.681 km
Speed
6.824 km/s
True Right ascension
01h 27m 43s
True Declination
0° 00' 00"
Sunlit
Object was in full shadow at epoch
Visualization orbit readout
Latitude
Unknown
Longitude
Unknown
Altitude
Unknown
Speed
Unknown
Apparent Right ascension
Unknown
Apparent Declination
Unknown
Sunlit
N/A
Visualization observer readout
Local Sidereal Time
17:40:55
Azimuth
Unknown
Elevation
Unknown
Doppler factor
Unknown
Orbital elements
Apogee altitude
18,691.241 km
Perigee altitude
353.468 km
Semi-major axis
15,900.492 km
Eccentricity
0.57664
Inclination
50.4317°
RAAN
21.9498°
Arg. of periapsis
94.6226°
True anomaly
265.49279°
Mean anomaly
329.6329°
Eccentric anomaly
301.44621°
Mean motion
1.0825 °/min
Orbital period
332.56 mins
BSTAR
0.00072237
Loading maneuver chart data...
Computing Atmospheric mass density...
Loading historical data...
Loading historical data...
Loading historical data...
Loading historical data...
Loading historical data...
Loading historical data...
Loading historical data...
Other satellites on launch #67 in the year 2019 (2019-10-09 UTC)

Documentation

Showing up to 5 results
|